Location: B�hl
(48.6968°N, 8.1352°E)
Time: 20:16:05
(UTC+00:00)

USA 308 - Pass Details

Date: 08 March 2021
Orbit: 568 x 576 km, 54.0° (Epoch: 13 April)

Event Time Altitude Azimuth Distance (km) Brightness Sun altitude
Rises 18:37:32 0° 295° (WNW) 2,780 8.0 -13.2°
Reaches altitude 10° 18:39:50 10° 299° (WNW) 1,879 6.7 -13.6°
Maximum altitude 18:44:03 58° 20° (NNE) 667 3.1 -14.3°
Enters shadow 18:46:20 25° 91° (E) 1,159 3.9 -14.6°
